Wetterdaten: Montag, 14.05.2012
Datum Zeit Temperatur Luftfeuchte Regen Wind Richtung Richtung Taupunkt Windchill Windben
14.05.2012 00:00 0,8 C 0 % 0,0 l/m 0,0 km/h (0 Bft) W-SW 247 -1,1 C 0,1 C 0,0 km/h (0 Bft)
14.05.2012 00:05 0,7 C 0 % 0,0 l/m 0,0 km/h (0 Bft) W-SW 247 -1,2 C -0,2 C 0,0 km/h (0 Bft)
14.05.2012 00:10 0,7 C 0 % 0,0 l/m 0,0 km/h (0 Bft) N-NW 337 -1,2 C -0,2 C 0,0 km/h (0 Bft)
14.05.2012 00:15 0,7 C 0 % 0,0 l/m 0,0 km/h (0 Bft) N-NW 337 -1,2 C -0,2 C 0,0 km/h (0 Bft)
14.05.2012 00:20 0,8 C 0 % 0,0 l/m 0,0 km/h (0 Bft) N-NW 337 -1,0 C -0,2 C 0,0 km/h (0 Bft)
14.05.2012 00:25 0,7 C 0 % 0,0 l/m 0,0 km/h (0 Bft) W-NW 292 -1,1 C 0,0 C 0,0 km/h (0 Bft)
14.05.2012 00:30 0,7 C 0 % 0,0 l/m 0,0 km/h (0 Bft) N 360 -1,1 C 0,1 C 0,0 km/h (0 Bft)
14.05.2012 00:35 0,8 C 0 % 0,0 l/m 0,0 km/h (0 Bft) NO 45 -1,0 C 0,0 C 0,0 km/h (0 Bft)
14.05.2012 00:40 0,9 C 0 % 0,0 l/m 0,0 km/h (0 Bft) N-NO 22 -0,7 C 0,0 C 0,0 km/h (0 Bft)
14.05.2012 00:45 0,9 C 0 % 0,0 l/m 0,0 km/h (0 Bft) N 360 -0,7 C 0,1 C 0,0 km/h (0 Bft)
14.05.2012 00:50 0,7 C 0 % 0,0 l/m 0,0 km/h (0 Bft) N 360 -0,9 C -0,2 C 0,0 km/h (0 Bft)
14.05.2012 00:55 0,6 C 0 % 0,0 l/m 0,0 km/h (0 Bft) N 360 -1,0 C -0,3 C 0,0 km/h (0 Bft)
14.05.2012 01:00 0,6 C 0 % 0,0 l/m 0,0 km/h (0 Bft) N-NO 22 -1,0 C -0,3 C 1,6 km/h (1 Bft)
14.05.2012 01:05 0,9 C 0 % 0,0 l/m 0,0 km/h (0 Bft) NO 45 -0,7 C -0,3 C 0,0 km/h (0 Bft)
14.05.2012 01:10 0,7 C 0 % 0,0 l/m 0,0 km/h (0 Bft) N-NO 22 -0,9 C -0,3 C 0,0 km/h (0 Bft)
14.05.2012 01:15 0,8 C 0 % 0,0 l/m 0,0 km/h (0 Bft) N-NW 337 -0,8 C -0,2 C 0,0 km/h (0 Bft)
14.05.2012 01:20 0,2 C 0 % 0,0 l/m 0,0 km/h (0 Bft) NO 45 -1,4 C -0,3 C 0,0 km/h (0 Bft)
14.05.2012 01:25 0,4 C 0 % 0,0 l/m 0,0 km/h (0 Bft) W-SW 247 -1,2 C -0,4 C 0,0 km/h (0 Bft)
14.05.2012 01:30 0,1 C 0 % 0,0 l/m 0,0 km/h (0 Bft) W-SW 247 -1,5 C -0,5 C 0,0 km/h (0 Bft)
14.05.2012 01:35 0,0 C 0 % 0,0 l/m 0,0 km/h (0 Bft) W-NW 292 -1,6 C -0,9 C 0,0 km/h (0 Bft)
14.05.2012 01:40 0,3 C 0 % 0,0 l/m 0,0 km/h (0 Bft) N-NO 22 -1,3 C -1,1 C 0,0 km/h (0 Bft)
14.05.2012 01:45 0,5 C 0 % 0,0 l/m 0,0 km/h (0 Bft) N-NO 22 -1,1 C -1,1 C 0,0 km/h (0 Bft)
14.05.2012 01:50 0,0 C 0 % 0,0 l/m 0,0 km/h (0 Bft) N 360 -1,6 C -1,1 C 0,0 km/h (0 Bft)
14.05.2012 01:55 -0,2 C 0 % 0,0 l/m 0,0 km/h (0 Bft) N 360 -1,8 C -1,3 C 2,1 km/h (1 Bft)
14.05.2012 02:00 0,6 C 0 % 0,0 l/m 0,2 km/h (0 Bft) NO 45 -0,8 C -1,1 C 1,6 km/h (1 Bft)
14.05.2012 02:05 0,7 C 0 % 0,0 l/m 0,5 km/h (0 Bft) N 360 -0,6 C -0,7 C 2,4 km/h (1 Bft)
14.05.2012 02:10 0,1 C 0 % 0,0 l/m 0,3 km/h (0 Bft) W-SW 247 -1,2 C -0,7 C 0,0 km/h (0 Bft)
14.05.2012 02:15 -0,2 C 0 % 0,0 l/m 0,0 km/h (0 Bft) N-NW 337 -1,6 C -0,9 C 0,0 km/h (0 Bft)
14.05.2012 02:20 -0,2 C 0 % 0,0 l/m 0,0 km/h (0 Bft) NO 45 -1,6 C -1,2 C 0,0 km/h (0 Bft)
14.05.2012 02:25 -0,4 C 0 % 0,0 l/m 0,0 km/h (0 Bft) S-SW 202 -1,8 C -1,3 C 0,0 km/h (0 Bft)
14.05.2012 02:30 -0,2 C 0 % 0,0 l/m 0,0 km/h (0 Bft) N-NO 22 -1,6 C -1,4 C 0,0 km/h (0 Bft)
14.05.2012 02:35 0,1 C 0 % 0,0 l/m 0,2 km/h (0 Bft) N-NO 22 -1,2 C -1,3 C 0,0 km/h (0 Bft)
14.05.2012 02:40 0,3 C 0 % 0,0 l/m 0,2 km/h (0 Bft) NO 45 -1,0 C -1,0 C 0,0 km/h (0 Bft)
14.05.2012 02:45 -0,1 C 0 % 0,0 l/m 0,0 km/h (0 Bft) N 360 -1,4 C -1,1 C 0,0 km/h (0 Bft)
14.05.2012 02:50 -0,7 C 0 % 0,0 l/m 0,0 km/h (0 Bft) W-NW 292 -2,1 C -1,4 C 0,0 km/h (0 Bft)
14.05.2012 02:55 -0,9 C 0 % 0,0 l/m 0,0 km/h (0 Bft) W-NW 292 -2,3 C -1,6 C 0,0 km/h (0 Bft)
14.05.2012 03:00 -0,5 C 0 % 0,0 l/m 0,0 km/h (0 Bft) N-NO 22 -1,9 C -1,8 C 0,0 km/h (0 Bft)
14.05.2012 03:05 -0,6 C 0 % 0,0 l/m 0,0 km/h (0 Bft) N-NO 22 -2,0 C -1,8 C 0,0 km/h (0 Bft)
14.05.2012 03:10 -0,9 C 0 % 0,0 l/m 0,0 km/h (0 Bft) W-NW 292 -2,3 C -2,0 C 0,0 km/h (0 Bft)
14.05.2012 03:15 -0,7 C 0 % 0,0 l/m 0,0 km/h (0 Bft) N-NO 22 -2,1 C -2,1 C 0,0 km/h (0 Bft)
14.05.2012 03:20 0,1 C 0 % 0,0 l/m 0,0 km/h (0 Bft) N-NW 337 -1,2 C -1,9 C 0,0 km/h (0 Bft)
14.05.2012 03:25 0,2 C 0 % 0,0 l/m 0,0 km/h (0 Bft) N-NO 22 -1,1 C -1,5 C 0,0 km/h (0 Bft)
14.05.2012 03:30 0,4 C 0 % 0,0 l/m 0,0 km/h (0 Bft) N-NO 22 -0,7 C -1,4 C 0,0 km/h (0 Bft)
14.05.2012 03:35 -0,3 C 0 % 0,0 l/m 0,0 km/h (0 Bft) S-SO 157 -1,6 C -1,4 C 0,0 km/h (0 Bft)
14.05.2012 03:40 -0,4 C 0 % 0,0 l/m 0,2 km/h (0 Bft) NO 45 -1,7 C -1,6 C 0,0 km/h (0 Bft)
14.05.2012 03:45 -0,1 C 0 % 0,0 l/m 0,2 km/h (0 Bft) N-NO 22 -1,4 C -1,4 C 0,0 km/h (0 Bft)
14.05.2012 03:50 0,0 C 0 % 0,0 l/m 0,2 km/h (0 Bft) N-NO 22 -1,1 C -1,2 C 0,0 km/h (0 Bft)
14.05.2012 03:55 -0,1 C 0 % 0,0 l/m 0,0 km/h (0 Bft) S 180 -1,4 C -1,2 C 0,0 km/h (0 Bft)
14.05.2012 04:00 -0,8 C 0 % 0,0 l/m 0,0 km/h (0 Bft) N 360 -2,1 C -1,5 C 0,0 km/h (0 Bft)
14.05.2012 04:05 -1,0 C 0 % 0,0 l/m 0,0 km/h (0 Bft) N 360 -2,3 C -1,7 C 0,0 km/h (0 Bft)
14.05.2012 04:10 -1,1 C 0 % 0,0 l/m 0,0 km/h (0 Bft) O-SO 112 -2,4 C -2,0 C 0,0 km/h (0 Bft)
14.05.2012 04:15 -1,1 C 0 % 0,0 l/m 0,0 km/h (0 Bft) N-NO 22 -2,4 C -2,0 C 0,0 km/h (0 Bft)
14.05.2012 04:20 -1,0 C 0 % 0,0 l/m 0,2 km/h (0 Bft) N-NO 22 -2,3 C -1,9 C 0,0 km/h (0 Bft)
14.05.2012 04:25 -0,9 C 0 % 0,0 l/m 0,2 km/h (0 Bft) N-NO 22 -2,2 C -1,9 C 0,0 km/h (0 Bft)
14.05.2012 04:30 -0,9 C 0 % 0,0 l/m 0,0 km/h (0 Bft) SO 135 -2,2 C -1,9 C 0,0 km/h (0 Bft)
14.05.2012 04:35 -1,2 C 0 % 0,0 l/m 0,0 km/h (0 Bft) SO 135 -2,5 C -2,0 C 0,0 km/h (0 Bft)
14.05.2012 04:40 -1,5 C 0 % 0,0 l/m 0,0 km/h (0 Bft) W 270 -2,9 C -2,3 C 0,0 km/h (0 Bft)
14.05.2012 04:45 -1,5 C 0 % 0,0 l/m 0,0 km/h (0 Bft) NW 315 -2,9 C -2,4 C 0,0 km/h (0 Bft)
14.05.2012 04:50 -1,5 C 0 % 0,0 l/m 0,0 km/h (0 Bft) W-NW 292 -2,8 C -2,1 C 0,0 km/h (0 Bft)
14.05.2012 04:55 -1,4 C 0 % 0,0 l/m 0,0 km/h (0 Bft) W-NW 292 -2,7 C -1,6 C 0,0 km/h (0 Bft)
14.05.2012 05:00 -1,6 C 0 % 0,0 l/m 0,0 km/h (0 Bft) W-NW 292 -2,9 C -1,9 C 0,0 km/h (0 Bft)
14.05.2012 05:05 -1,8 C 0 % 0,0 l/m 0,0 km/h (0 Bft) W-NW 292 -3,2 C -2,1 C 0,0 km/h (0 Bft)
14.05.2012 05:10 -2,1 C 0 % 0,0 l/m 0,0 km/h (0 Bft) W-NW 292 -3,5 C -2,4 C 0,0 km/h (0 Bft)
14.05.2012 05:15 -2,1 C 0 % 0,0 l/m 0,0 km/h (0 Bft) W-NW 292 -3,5 C -2,5 C 0,0 km/h (0 Bft)
14.05.2012 05:20 -2,2 C 0 % 0,0 l/m 0,0 km/h (0 Bft) W-NW 292 -3,6 C -2,8 C 0,0 km/h (0 Bft)
14.05.2012 05:25 -2,2 C 0 % 0,0 l/m 0,0 km/h (0 Bft) W-NW 292 -3,6 C -2,9 C 0,0 km/h (0 Bft)
14.05.2012 05:30 -2,3 C 0 % 0,0 l/m 0,0 km/h (0 Bft) W-NW 292 -3,7 C -3,1 C 0,0 km/h (0 Bft)
14.05.2012 05:35 -2,2 C 0 % 0,0 l/m 0,0 km/h (0 Bft) W-NW 292 -3,6 C -3,1 C 0,0 km/h (0 Bft)
14.05.2012 05:40 -2,4 C 0 % 0,0 l/m 0,0 km/h (0 Bft) W-NW 292 -3,8 C -3,2 C 0,0 km/h (0 Bft)
14.05.2012 05:45 -2,4 C 0 % 0,0 l/m 0,0 km/h (0 Bft) W-NW 292 -3,8 C -3,2 C 0,0 km/h (0 Bft)
14.05.2012 05:50 -2,4 C 0 % 0,0 l/m 0,0 km/h (0 Bft) W-NW 292 -3,8 C -3,1 C 0,0 km/h (0 Bft)
14.05.2012 05:55 -2,2 C 0 % 0,0 l/m 0,0 km/h (0 Bft) W-NW 292 -3,6 C -3,0 C 0,0 km/h (0 Bft)
14.05.2012 06:00 -1,7 C 0 % 0,0 l/m 0,0 km/h (0 Bft) W-NW 292 -3,0 C -2,8 C 0,0 km/h (0 Bft)
14.05.2012 06:05 -1,7 C 0 % 0,0 l/m 0,0 km/h (0 Bft) W-NW 292 -3,0 C -2,6 C 0,0 km/h (0 Bft)
14.05.2012 06:10 -1,7 C 0 % 0,0 l/m 0,0 km/h (0 Bft) W-NW 292 -3,0 C -2,4 C 0,0 km/h (0 Bft)
14.05.2012 06:15 -1,7 C 0 % 0,0 l/m 0,0 km/h (0 Bft) W-NW 292 -3,0 C -2,4 C 0,0 km/h (0 Bft)
14.05.2012 06:20 -1,8 C 0 % 0,0 l/m 0,0 km/h (0 Bft) W-NW 292 -3,1 C -2,2 C 0,0 km/h (0 Bft)
14.05.2012 06:25 -1,5 C 0 % 0,0 l/m 0,0 km/h (0 Bft) W-NW 292 -2,8 C -1,9 C 0,0 km/h (0 Bft)
14.05.2012 06:30 -1,1 C 0 % 0,0 l/m 0,0 km/h (0 Bft) W-NW 292 -2,4 C -1,4 C 0,0 km/h (0 Bft)
14.05.2012 06:35 -0,2 C 0 % 0,0 l/m 0,0 km/h (0 Bft) W-NW 292 -1,5 C -0,5 C 0,0 km/h (0 Bft)
14.05.2012 06:40 1,6 C 0 % 0,0 l/m 0,0 km/h (0 Bft) W-NW 292 0,3 C 1,2 C 0,0 km/h (0 Bft)
14.05.2012 06:45 2,2 C 0 % 0,0 l/m 0,0 km/h (0 Bft) W-NW 292 0,9 C 2,2 C 0,0 km/h (0 Bft)
14.05.2012 06:50 1,3 C 0 % 0,0 l/m 0,0 km/h (0 Bft) W-NW 292 -0,3 C 2,9 C 0,0 km/h (0 Bft)
14.05.2012 06:55 2,2 C 0 % 0,0 l/m 0,0 km/h (0 Bft) W-NW 292 0,6 C 3,3 C 0,0 km/h (0 Bft)
14.05.2012 07:00 3,4 C 0 % 0,0 l/m 0,0 km/h (0 Bft) W-NW 292 1,6 C 5,0 C 0,0 km/h (0 Bft)
14.05.2012 07:05 3,8 C 0 % 0,0 l/m 0,0 km/h (0 Bft) W-NW 292 1,8 C 6,0 C 0,0 km/h (0 Bft)
14.05.2012 07:10 4,4 C 0 % 0,0 l/m 0,0 km/h (0 Bft) W-NW 292 2,3 C 7,3 C 0,0 km/h (0 Bft)
14.05.2012 07:15 4,3 C 0 % 0,0 l/m 0,0 km/h (0 Bft) W-NW 292 1,8 C 7,6 C 0,0 km/h (0 Bft)
14.05.2012 07:20 5,3 C 0 % 0,0 l/m 0,0 km/h (0 Bft) N 360 2,3 C 8,1 C 0,0 km/h (0 Bft)
14.05.2012 07:25 6,1 C 0 % 0,0 l/m 0,0 km/h (0 Bft) N 360 2,7 C 8,8 C 0,0 km/h (0 Bft)
14.05.2012 07:30 7,1 C 0 % 0,0 l/m 0,0 km/h (0 Bft) N-NO 22 3,0 C 9,6 C 0,0 km/h (0 Bft)
14.05.2012 07:35 7,8 C 0 % 0,0 l/m 0,0 km/h (0 Bft) S-SO 157 2,9 C 10,4 C 0,0 km/h (0 Bft)
14.05.2012 07:40 8,0 C 0 % 0,0 l/m 0,0 km/h (0 Bft) N-NW 337 1,2 C 11,0 C 0,0 km/h (0 Bft)
14.05.2012 07:45 8,3 C 0 % 0,0 l/m 0,0 km/h (0 Bft) N 360 1,2 C 11,1 C 0,0 km/h (0 Bft)
14.05.2012 07:50 9,4 C 0 % 0,0 l/m 0,0 km/h (0 Bft) W 270 2,5 C 11,8 C 0,0 km/h (0 Bft)
14.05.2012 07:55 10,0 C 0 % 0,0 l/m 0,0 km/h (0 Bft) W-NW 292 2,8 C 12,1 C 0,0 km/h (0 Bft)
14.05.2012 08:00 11,0 C 0 % 0,0 l/m 0,0 km/h (0 Bft) N 360 3,3 C 12,6 C 0,0 km/h (0 Bft)
14.05.2012 08:05 11,7 C 0 % 0,0 l/m 0,0 km/h (0 Bft) N 360 4,0 C 13,2 C 4,2 km/h (1 Bft)
14.05.2012 08:10 11,3 C 0 % 0,0 l/m 0,6 km/h (0 Bft) W 270 2,6 C 13,3 C 3,5 km/h (1 Bft)
14.05.2012 08:15 11,7 C 0 % 0,0 l/m 1,4 km/h (1 Bft) W 270 3,2 C 12,6 C 4,5 km/h (1 Bft)
14.05.2012 08:20 12,8 C 0 % 0,0 l/m 1,6 km/h (1 Bft) N-NO 22 4,0 C 12,9 C 0,0 km/h (0 Bft)
14.05.2012 08:25 13,3 C 0 % 0,0 l/m 1,1 km/h (1 Bft) SO 135 4,2 C 13,8 C 2,3 km/h (1 Bft)
14.05.2012 08:30 13,5 C 0 % 0,0 l/m 0,8 km/h (0 Bft) N-NW 337 3,0 C 14,4 C 2,4 km/h (1 Bft)
14.05.2012 08:35 12,6 C 0 % 0,0 l/m 1,4 km/h (1 Bft) SW 225 1,9 C 14,2 C 2,1 km/h (1 Bft)
14.05.2012 08:40 12,7 C 0 % 0,0 l/m 1,6 km/h (1 Bft) W-SW 247 2,5 C 14,5 C 2,7 km/h (1 Bft)
14.05.2012 08:45 12,4 C 0 % 0,0 l/m 1,6 km/h (1 Bft) SW 225 2,5 C 14,7 C 6,4 km/h (2 Bft)
14.05.2012 08:50 11,7 C 0 % 0,0 l/m 2,9 km/h (1 Bft) N 360 2,5 C 13,9 C 4,0 km/h (1 Bft)
14.05.2012 08:55 11,7 C 0 % 0,0 l/m 3,5 km/h (1 Bft) SW 225 2,2 C 13,7 C 5,3 km/h (1 Bft)
14.05.2012 09:00 11,7 C 0 % 0,0 l/m 4,0 km/h (1 Bft) SW 225 2,5 C 13,5 C 5,6 km/h (1 Bft)
14.05.2012 09:05 11,9 C 0 % 0,0 l/m 4,2 km/h (1 Bft) S-SW 202 3,2 C 13,4 C 7,2 km/h (2 Bft)
14.05.2012 09:10 11,9 C 0 % 0,0 l/m 4,3 km/h (1 Bft) W-SW 247 1,9 C 13,5 C 4,8 km/h (1 Bft)
14.05.2012 09:15 11,9 C 0 % 0,0 l/m 4,3 km/h (1 Bft) S-SW 202 2,0 C 13,6 C 7,4 km/h (2 Bft)
14.05.2012 09:20 12,0 C 0 % 0,0 l/m 4,0 km/h (1 Bft) W-SW 247 1,4 C 13,9 C 8,7 km/h (2 Bft)
14.05.2012 09:25 11,9 C 0 % 0,0 l/m 4,0 km/h (1 Bft) N-NW 337 1,8 C 13,9 C 3,1 km/h (1 Bft)
14.05.2012 09:30 12,0 C 0 % 0,0 l/m 4,2 km/h (1 Bft) W-NW 292 0,8 C 14,1 C 5,1 km/h (1 Bft)
14.05.2012 09:35 12,3 C 0 % 0,0 l/m 3,7 km/h (1 Bft) W-SW 247 0,5 C 14,5 C 1,6 km/h (1 Bft)
14.05.2012 09:40 10,0 C 0 % 0,0 l/m 3,4 km/h (1 Bft) W 270 -1,1 C 13,2 C 3,1 km/h (1 Bft)
14.05.2012 09:45 9,3 C 0 % 0,0 l/m 3,2 km/h (1 Bft) S-SW 202 -1,1 C 11,3 C 9,3 km/h (2 Bft)
14.05.2012 09:50 10,2 C 0 % 0,0 l/m 3,5 km/h (1 Bft) W 270 -0,6 C 10,0 C 4,5 km/h (1 Bft)
14.05.2012 09:55 11,7 C 0 % 0,0 l/m 3,9 km/h (1 Bft) W-SW 247 0,4 C 11,0 C 9,7 km/h (2 Bft)
14.05.2012 10:00 11,8 C 0 % 0,0 l/m 3,7 km/h (1 Bft) W-SW 247 -1,1 C 12,4 C 4,8 km/h (1 Bft)
14.05.2012 10:05 9,6 C 0 % 0,0 l/m 4,2 km/h (1 Bft) W 270 -2,7 C 11,9 C 4,7 km/h (1 Bft)
14.05.2012 10:10 8,9 C 0 % 0,0 l/m 4,5 km/h (1 Bft) W 270 -2,1 C 9,8 C 2,9 km/h (1 Bft)
14.05.2012 10:15 11,6 C 0 % 0,0 l/m 4,3 km/h (1 Bft) S-SO 157 0,0 C 9,9 C 6,1 km/h (2 Bft)
14.05.2012 10:20 12,1 C 0 % 0,0 l/m 4,3 km/h (1 Bft) S 180 0,3 C 12,7 C 3,7 km/h (1 Bft)
14.05.2012 10:25 13,0 C 0 % 0,0 l/m 4,3 km/h (1 Bft) W-NW 292 1,1 C 13,6 C 6,3 km/h (2 Bft)
14.05.2012 10:30 13,3 C 0 % 0,0 l/m 4,7 km/h (1 Bft) W 270 -0,2 C 14,4 C 6,0 km/h (2 Bft)
14.05.2012 10:35 13,7 C 0 % 0,0 l/m 4,7 km/h (1 Bft) W 270 0,0 C 14,7 C 5,6 km/h (1 Bft)
14.05.2012 10:40 13,3 C 0 % 0,0 l/m 4,7 km/h (1 Bft) S-SW 202 0,5 C 14,6 C 5,6 km/h (1 Bft)
14.05.2012 10:45 12,4 C 0 % 0,0 l/m 5,3 km/h (1 Bft) W-SW 247 -0,5 C 14,0 C 10,1 km/h (2 Bft)
14.05.2012 10:50 12,7 C 0 % 0,0 l/m 4,5 km/h (1 Bft) S-SW 202 -0,2 C 12,9 C 8,9 km/h (2 Bft)
14.05.2012 10:55 13,7 C 0 % 0,0 l/m 4,8 km/h (1 Bft) N 360 0,4 C 13,2 C 7,2 km/h (2 Bft)
14.05.2012 11:00 12,9 C 0 % 0,0 l/m 5,6 km/h (1 Bft) W-NW 292 -1,1 C 13,4 C 9,3 km/h (2 Bft)
14.05.2012 11:05 12,9 C 0 % 0,0 l/m 5,0 km/h (1 Bft) W-SW 247 -1,1 C 13,4 C 4,3 km/h (1 Bft)
14.05.2012 11:10 12,4 C 0 % 0,0 l/m 4,2 km/h (1 Bft) W-NW 292 -2,2 C 13,8 C 0,0 km/h (0 Bft)
14.05.2012 11:15 13,0 C 0 % 0,0 l/m 4,0 km/h (1 Bft) W 270 -1,0 C 14,0 C 10,5 km/h (2 Bft)
14.05.2012 11:20 12,8 C 0 % 0,0 l/m 5,0 km/h (1 Bft) SW 225 -1,2 C 13,9 C 8,7 km/h (2 Bft)
14.05.2012 11:25 12,8 C 0 % 0,0 l/m 5,6 km/h (1 Bft) S 180 -0,8 C 13,4 C 12,9 km/h (3 Bft)
14.05.2012 11:30 12,9 C 0 % 0,0 l/m 6,0 km/h (2 Bft) S-SW 202 -1,1 C 13,2 C 6,1 km/h (2 Bft)
14.05.2012 11:35 13,8 C 0 % 0,0 l/m 4,8 km/h (1 Bft) S 180 -0,3 C 13,2 C 3,7 km/h (1 Bft)
14.05.2012 11:40 13,5 C 0 % 0,0 l/m 4,8 km/h (1 Bft) SO 135 -0,9 C 13,4 C 6,9 km/h (2 Bft)
14.05.2012 11:45 13,9 C 0 % 0,0 l/m 5,1 km/h (1 Bft) S 180 -0,9 C 13,4 C 11,6 km/h (2 Bft)
14.05.2012 11:50 13,9 C 0 % 0,0 l/m 5,3 km/h (1 Bft) S 180 -1,7 C 13,2 C 3,9 km/h (1 Bft)
14.05.2012 11:55 14,3 C 0 % 0,0 l/m 4,5 km/h (1 Bft) S 180 -1,3 C 13,2 C 3,1 km/h (1 Bft)
14.05.2012 12:00 13,7 C 0 % 0,0 l/m 4,8 km/h (1 Bft) W-SW 247 -2,7 C 13,0 C 7,4 km/h (2 Bft)
14.05.2012 12:05 13,2 C 0 % 0,0 l/m 5,0 km/h (1 Bft) W-SW 247 -2,3 C 12,8 C 3,4 km/h (1 Bft)
14.05.2012 12:10 13,8 C 0 % 0,0 l/m 4,8 km/h (1 Bft) W-SW 247 -1,8 C 12,8 C 14,5 km/h (3 Bft)
14.05.2012 12:15 14,0 C 0 % 0,0 l/m 6,1 km/h (2 Bft) N-NO 22 -0,8 C 12,1 C 6,6 km/h (2 Bft)
14.05.2012 12:20 13,4 C 0 % 0,0 l/m 6,3 km/h (2 Bft) N 360 -3,4 C 11,7 C 2,9 km/h (1 Bft)
14.05.2012 12:25 13,6 C 0 % 0,0 l/m 4,2 km/h (1 Bft) W 270 -2,8 C 12,0 C 14,8 km/h (3 Bft)
14.05.2012 12:30 14,1 C 0 % 0,0 l/m 3,7 km/h (1 Bft) W-NW 292 -1,9 C 12,1 C 7,2 km/h (2 Bft)
14.05.2012 12:35 13,9 C 0 % 0,0 l/m 3,9 km/h (1 Bft) N-NW 337 -2,1 C 12,0 C 0,0 km/h (0 Bft)
14.05.2012 12:40 14,2 C 0 % 0,0 l/m 5,5 km/h (1 Bft) W-SW 247 -2,2 C 11,8 C 9,0 km/h (2 Bft)
14.05.2012 12:45 14,2 C 0 % 0,0 l/m 4,7 km/h (1 Bft) W-SW 247 -1,8 C 11,7 C 0,0 km/h (0 Bft)
14.05.2012 12:50 15,0 C 0 % 0,0 l/m 3,1 km/h (1 Bft) S 180 -1,1 C 12,0 C 0,0 km/h (0 Bft)
14.05.2012 12:55 14,6 C 0 % 0,0 l/m 2,6 km/h (1 Bft) W 270 -1,5 C 12,3 C 8,7 km/h (2 Bft)
14.05.2012 13:00 13,2 C 0 % 0,0 l/m 5,5 km/h (1 Bft) W-NW 292 -3,5 C 11,9 C 5,6 km/h (1 Bft)
14.05.2012 13:05 13,8 C 0 % 0,0 l/m 6,9 km/h (2 Bft) W-NW 292 -2,2 C 11,0 C 8,7 km/h (2 Bft)
14.05.2012 13:10 13,9 C 0 % 0,0 l/m 4,8 km/h (1 Bft) S-SW 202 -1,7 C 11,9 C 3,5 km/h (1 Bft)
14.05.2012 13:15 14,1 C 0 % 0,0 l/m 4,0 km/h (1 Bft) W-NW 292 -1,9 C 12,3 C 7,6 km/h (2 Bft)
14.05.2012 13:20 13,8 C 0 % 0,0 l/m 5,0 km/h (1 Bft) W-NW 292 -2,2 C 12,5 C 7,9 km/h (2 Bft)
14.05.2012 13:25 13,8 C 0 % 0,0 l/m 6,0 km/h (2 Bft) S 180 -1,8 C 12,6 C 7,4 km/h (2 Bft)
14.05.2012 13:30 13,7 C 0 % 0,0 l/m 6,1 km/h (2 Bft) N 360 -2,3 C 12,7 C 5,0 km/h (1 Bft)
14.05.2012 13:35 13,9 C 0 % 0,0 l/m 5,1 km/h (1 Bft) SO 135 -2,1 C 13,2 C 2,4 km/h (1 Bft)
14.05.2012 13:40 14,4 C 0 % 0,0 l/m 4,5 km/h (1 Bft) W 270 -2,1 C 13,7 C 9,5 km/h (2 Bft)
14.05.2012 13:45 13,8 C 0 % 0,0 l/m 5,5 km/h (1 Bft) W-NW 292 -2,6 C 13,6 C 4,5 km/h (1 Bft)
14.05.2012 13:50 14,0 C 0 % 0,0 l/m 5,0 km/h (1 Bft) O 90 -2,8 C 14,3 C 1,6 km/h (1 Bft)
14.05.2012 13:55 15,1 C 0 % 0,0 l/m 3,4 km/h (1 Bft) S 180 -1,0 C 14,9 C 1,6 km/h (1 Bft)
14.05.2012 14:00 15,6 C 0 % 0,0 l/m 3,2 km/h (1 Bft) W-NW 292 -1,5 C 15,8 C 11,1 km/h (2 Bft)
14.05.2012 14:05 14,5 C 0 % 0,0 l/m 5,1 km/h (1 Bft) W-SW 247 -2,0 C 15,4 C 7,1 km/h (2 Bft)
14.05.2012 14:10 14,5 C 0 % 0,0 l/m 5,8 km/h (2 Bft) SO 135 -2,0 C 15,4 C 2,3 km/h (1 Bft)
14.05.2012 14:15 15,2 C 0 % 0,0 l/m 3,7 km/h (1 Bft) W-NW 292 -1,4 C 16,1 C 3,5 km/h (1 Bft)
14.05.2012 14:20 14,7 C 0 % 0,0 l/m 3,9 km/h (1 Bft) N-NW 337 -2,7 C 16,3 C 8,5 km/h (2 Bft)
14.05.2012 14:25 14,7 C 0 % 0,0 l/m 4,8 km/h (1 Bft) W 270 -1,8 C 15,9 C 10,6 km/h (2 Bft)
14.05.2012 14:30 15,2 C 0 % 0,0 l/m 4,3 km/h (1 Bft) W-NW 292 -2,2 C 16,1 C 6,0 km/h (2 Bft)
14.05.2012 14:35 14,7 C 0 % 0,0 l/m 3,9 km/h (1 Bft) S-SO 157 -2,7 C 16,0 C 5,1 km/h (1 Bft)
14.05.2012 14:40 14,6 C 0 % 0,0 l/m 4,3 km/h (1 Bft) W-SW 247 -2,3 C 16,1 C 10,3 km/h (2 Bft)
14.05.2012 14:45 15,1 C 0 % 0,0 l/m 4,5 km/h (1 Bft) NO 45 -2,3 C 16,0 C 9,5 km/h (2 Bft)
14.05.2012 14:50 14,5 C 0 % 0,0 l/m 5,0 km/h (1 Bft) NW 315 -2,9 C 15,8 C 5,8 km/h (2 Bft)
14.05.2012 14:55 14,4 C 0 % 0,0 l/m 5,0 km/h (1 Bft) O-SO 112 -2,5 C 15,5 C 1,9 km/h (1 Bft)
14.05.2012 15:00 15,5 C 0 % 0,0 l/m 3,2 km/h (1 Bft) W-SW 247 -1,1 C 16,2 C 3,4 km/h (1 Bft)
14.05.2012 15:05 14,7 C 0 % 0,0 l/m 2,9 km/h (1 Bft) W-SW 247 -1,8 C 16,3 C 4,3 km/h (1 Bft)
14.05.2012 15:10 14,7 C 0 % 0,0 l/m 5,8 km/h (2 Bft) N 360 -1,4 C 16,0 C 8,9 km/h (2 Bft)
14.05.2012 15:15 14,9 C 0 % 0,0 l/m 6,3 km/h (2 Bft) W-SW 247 -2,1 C 15,8 C 4,2 km/h (1 Bft)
14.05.2012 15:20 15,3 C 0 % 0,0 l/m 5,8 km/h (2 Bft) W-SW 247 -1,7 C 15,7 C 5,1 km/h (1 Bft)
14.05.2012 15:25 14,9 C 0 % 0,0 l/m 5,6 km/h (1 Bft) W-NW 292 -2,1 C 15,5 C 10,0 km/h (2 Bft)
14.05.2012 15:30 14,8 C 0 % 0,0 l/m 5,1 km/h (1 Bft) W-SW 247 -1,7 C 15,5 C 6,1 km/h (2 Bft)
14.05.2012 15:35 15,2 C 0 % 0,0 l/m 5,1 km/h (1 Bft) S-SW 202 -1,8 C 15,8 C 15,6 km/h (3 Bft)
14.05.2012 15:40 14,5 C 0 % 0,0 l/m 7,2 km/h (2 Bft) S-SW 202 -2,9 C 15,1 C 13,0 km/h (3 Bft)
14.05.2012 15:45 15,1 C 0 % 0,0 l/m 6,8 km/h (2 Bft) S-SW 202 -1,9 C 15,1 C 2,7 km/h (1 Bft)
14.05.2012 15:50 14,8 C 0 % 0,0 l/m 6,8 km/h (2 Bft) W-SW 247 -2,2 C 15,4 C 8,9 km/h (2 Bft)
14.05.2012 15:55 15,4 C 0 % 0,0 l/m 6,1 km/h (2 Bft) W-SW 247 -1,2 C 15,8 C 5,8 km/h (2 Bft)
14.05.2012 16:00 15,4 C 0 % 0,0 l/m 5,0 km/h (1 Bft) S 180 -1,2 C 16,3 C 3,7 km/h (1 Bft)
14.05.2012 16:05 15,5 C 0 % 0,0 l/m 4,2 km/h (1 Bft) W-NW 292 -1,5 C 16,9 C 9,0 km/h (2 Bft)
14.05.2012 16:10 14,7 C 0 % 0,0 l/m 4,7 km/h (1 Bft) S 180 -2,2 C 17,0 C 4,7 km/h (1 Bft)
14.05.2012 16:15 15,3 C 0 % 0,0 l/m 4,3 km/h (1 Bft) S-SW 202 -1,3 C 17,2 C 0,0 km/h (0 Bft)
14.05.2012 16:20 14,9 C 0 % 0,0 l/m 3,7 km/h (1 Bft) N 360 -1,6 C 17,8 C 1,8 km/h (1 Bft)
14.05.2012 16:25 14,6 C 0 % 0,0 l/m 4,3 km/h (1 Bft) SO 135 -2,3 C 17,6 C 8,7 km/h (2 Bft)
14.05.2012 16:30 13,9 C 0 % 0,0 l/m 4,8 km/h (1 Bft) W-SW 247 -2,9 C 17,5 C 7,6 km/h (2 Bft)
14.05.2012 16:35 14,0 C 0 % 0,0 l/m 5,1 km/h (1 Bft) W-SW 247 -2,8 C 17,2 C 5,3 km/h (1 Bft)
14.05.2012 16:40 13,2 C 0 % 0,0 l/m 3,2 km/h (1 Bft) NW 315 -3,1 C 17,8 C 2,1 km/h (1 Bft)
14.05.2012 16:45 13,0 C 0 % 0,0 l/m 2,3 km/h (1 Bft) W 270 -2,5 C 18,4 C 6,4 km/h (2 Bft)
14.05.2012 16:50 13,1 C 0 % 0,0 l/m 3,7 km/h (1 Bft) W 270 -2,8 C 18,3 C 8,5 km/h (2 Bft)
14.05.2012 16:55 12,8 C 0 % 0,0 l/m 4,3 km/h (1 Bft) N-NO 22 -2,3 C 18,0 C 1,9 km/h (1 Bft)
14.05.2012 17:00 12,5 C 0 % 0,0 l/m 4,0 km/h (1 Bft) S-SO 157 -2,2 C 18,2 C 3,2 km/h (1 Bft)
14.05.2012 17:05 12,3 C 0 % 0,0 l/m 4,7 km/h (1 Bft) SW 225 -2,7 C 17,8 C 6,9 km/h (2 Bft)
14.05.2012 17:10 12,4 C 0 % 0,0 l/m 4,5 km/h (1 Bft) W 270 -1,9 C 17,9 C 7,1 km/h (2 Bft)
14.05.2012 17:15 12,3 C 0 % 0,0 l/m 4,7 km/h (1 Bft) W-SW 247 -2,3 C 17,8 C 6,4 km/h (2 Bft)
14.05.2012 17:20 12,2 C 0 % 0,0 l/m 5,3 km/h (1 Bft) NO 45 -2,0 C 17,5 C 8,4 km/h (2 Bft)
14.05.2012 17:25 12,1 C 0 % 0,0 l/m 4,8 km/h (1 Bft) W-NW 292 -2,1 C 17,2 C 4,7 km/h (1 Bft)
14.05.2012 17:30 12,0 C 0 % 0,0 l/m 3,5 km/h (1 Bft) S 180 -1,9 C 17,8 C 3,5 km/h (1 Bft)
14.05.2012 17:35 12,1 C 0 % 0,0 l/m 3,2 km/h (1 Bft) S 180 -1,8 C 18,0 C 6,4 km/h (2 Bft)
14.05.2012 17:40 12,2 C 0 % 0,0 l/m 5,1 km/h (1 Bft) S-SW 202 -1,7 C 17,6 C 6,3 km/h (2 Bft)
14.05.2012 17:45 12,2 C 0 % 0,0 l/m 5,5 km/h (1 Bft) S-SW 202 -1,7 C 17,4 C 6,1 km/h (2 Bft)
14.05.2012 17:50 11,8 C 0 % 0,0 l/m 5,3 km/h (1 Bft) S-SO 157 -2,4 C 17,2 C 6,3 km/h (2 Bft)
14.05.2012 17:55 11,9 C 0 % 0,0 l/m 4,8 km/h (1 Bft) W 270 -2,0 C 17,4 C 5,6 km/h (1 Bft)
14.05.2012 18:00 11,8 C 0 % 0,0 l/m 5,5 km/h (1 Bft) N 360 -2,4 C 17,1 C 11,3 km/h (2 Bft)
14.05.2012 18:05 11,8 C 0 % 0,0 l/m 5,6 km/h (1 Bft) SO 135 -2,0 C 16,8 C 3,5 km/h (1 Bft)
14.05.2012 18:10 12,0 C 0 % 0,0 l/m 4,8 km/h (1 Bft) N-NW 337 -1,9 C 17,0 C 3,1 km/h (1 Bft)
14.05.2012 18:15 11,8 C 0 % 0,0 l/m 4,3 km/h (1 Bft) W-NW 292 -1,7 C 17,1 C 6,4 km/h (2 Bft)
14.05.2012 18:20 11,9 C 0 % 0,0 l/m 4,8 km/h (1 Bft) W-NW 292 -0,9 C 16,8 C 8,4 km/h (2 Bft)
14.05.2012 18:25 11,8 C 0 % 0,0 l/m 4,8 km/h (1 Bft) SW 225 -1,7 C 16,7 C 3,4 km/h (1 Bft)
14.05.2012 18:30 11,9 C 0 % 0,0 l/m 4,3 km/h (1 Bft) S-SW 202 -1,3 C 16,8 C 4,8 km/h (1 Bft)
14.05.2012 18:35 11,9 C 0 % 0,0 l/m 4,0 km/h (1 Bft) SW 225 -1,6 C 17,0 C 9,3 km/h (2 Bft)
14.05.2012 18:40 11,8 C 0 % 0,0 l/m 5,0 km/h (1 Bft) SW 225 -1,0 C 16,6 C 7,2 km/h (2 Bft)
14.05.2012 18:45 11,6 C 0 % 0,0 l/m 5,3 km/h (1 Bft) NO 45 -1,2 C 16,5 C 4,7 km/h (1 Bft)
14.05.2012 18:50 11,6 C 0 % 0,0 l/m 4,3 km/h (1 Bft) W 270 -0,5 C 16,6 C 6,3 km/h (2 Bft)
14.05.2012 18:55 11,6 C 0 % 0,0 l/m 4,2 km/h (1 Bft) W-NW 292 -0,9 C 16,4 C 6,4 km/h (2 Bft)
14.05.2012 19:00 11,3 C 0 % 0,0 l/m 5,0 km/h (1 Bft) O-NO 67 -0,8 C 16,2 C 5,0 km/h (1 Bft)
14.05.2012 19:05 11,3 C 0 % 0,0 l/m 4,7 km/h (1 Bft) W-NW 292 -0,8 C 15,9 C 4,8 km/h (1 Bft)
14.05.2012 19:10 11,3 C 0 % 0,0 l/m 4,2 km/h (1 Bft) W-SW 247 -0,5 C 15,8 C 7,9 km/h (2 Bft)
14.05.2012 19:15 11,2 C 0 % 0,0 l/m 4,5 km/h (1 Bft) S 180 -0,9 C 15,6 C 8,4 km/h (2 Bft)
14.05.2012 19:20 11,1 C 0 % 0,0 l/m 4,5 km/h (1 Bft) W-NW 292 -0,7 C 15,4 C 3,1 km/h (1 Bft)
14.05.2012 19:25 11,0 C 0 % 0,0 l/m 3,7 km/h (1 Bft) S 180 -0,8 C 15,3 C 4,7 km/h (1 Bft)
14.05.2012 19:30 10,9 C 0 % 0,0 l/m 4,5 km/h (1 Bft) S-SO 157 -0,9 C 15,0 C 5,5 km/h (1 Bft)
14.05.2012 19:35 10,9 C 0 % 0,0 l/m 5,5 km/h (1 Bft) W-SW 247 -0,9 C 14,5 C 6,1 km/h (2 Bft)
14.05.2012 19:40 10,5 C 0 % 0,0 l/m 4,8 km/h (1 Bft) W-SW 247 -0,6 C 14,0 C 5,8 km/h (2 Bft)
14.05.2012 19:45 10,3 C 0 % 0,0 l/m 4,2 km/h (1 Bft) S-SW 202 -0,8 C 13,3 C 5,8 km/h (2 Bft)
14.05.2012 19:50 9,8 C 0 % 0,0 l/m 3,9 km/h (1 Bft) W-SW 247 -1,0 C 12,3 C 4,0 km/h (1 Bft)
14.05.2012 19:55 9,6 C 0 % 0,0 l/m 3,2 km/h (1 Bft) S 180 -1,1 C 11,8 C 3,5 km/h (1 Bft)
14.05.2012 20:00 9,4 C 0 % 0,0 l/m 2,3 km/h (1 Bft) S-SW 202 -0,8 C 11,2 C 4,8 km/h (1 Bft)
14.05.2012 20:05 9,5 C 0 % 0,0 l/m 2,9 km/h (1 Bft) S-SW 202 -0,7 C 10,9 C 4,3 km/h (1 Bft)
14.05.2012 20:10 9,1 C 0 % 0,0 l/m 3,1 km/h (1 Bft) S-SW 202 -0,8 C 10,5 C 2,7 km/h (1 Bft)
14.05.2012 20:15 8,6 C 0 % 0,0 l/m 2,3 km/h (1 Bft) S 180 -1,2 C 10,1 C 0,0 km/h (0 Bft)
14.05.2012 20:20 8,0 C 0 % 0,0 l/m 0,8 km/h (0 Bft) NO 45 -0,7 C 9,3 C 0,0 km/h (0 Bft)
14.05.2012 20:25 7,8 C 0 % 0,0 l/m 0,2 km/h (0 Bft) NO 45 -0,7 C 8,8 C 0,0 km/h (0 Bft)
14.05.2012 20:30 7,6 C 0 % 0,0 l/m 0,2 km/h (0 Bft) N 360 -0,9 C 8,0 C 0,0 km/h (0 Bft)
14.05.2012 20:35 7,5 C 0 % 0,0 l/m 0,5 km/h (0 Bft) NO 45 -0,7 C 7,6 C 0,0 km/h (0 Bft)
14.05.2012 20:40 7,4 C 0 % 0,0 l/m 0,5 km/h (0 Bft) N-NO 22 -0,8 C 7,2 C 0,0 km/h (0 Bft)
14.05.2012 20:45 7,3 C 0 % 0,0 l/m 0,5 km/h (0 Bft) N-NO 22 -0,9 C 7,0 C 0,0 km/h (0 Bft)
14.05.2012 20:50 7,0 C 0 % 0,0 l/m 0,3 km/h (0 Bft) NO 45 -1,2 C 6,6 C 0,0 km/h (0 Bft)
14.05.2012 20:55 6,9 C 0 % 0,0 l/m 0,2 km/h (0 Bft) NO 45 -1,0 C 6,4 C 0,0 km/h (0 Bft)
14.05.2012 21:00 6,6 C 0 % 0,0 l/m 0,2 km/h (0 Bft) N 360 -1,1 C 6,0 C 0,0 km/h (0 Bft)
14.05.2012 21:05 5,8 C 0 % 0,0 l/m 0,2 km/h (0 Bft) N-NO 22 -1,6 C 5,7 C 0,0 km/h (0 Bft)
14.05.2012 21:10 5,3 C 0 % 0,0 l/m 0,2 km/h (0 Bft) N-NO 22 -2,0 C 5,2 C 0,0 km/h (0 Bft)
14.05.2012 21:15 5,3 C 0 % 0,0 l/m 0,0 km/h (0 Bft) N-NO 22 -1,4 C 4,9 C 0,0 km/h (0 Bft)
14.05.2012 21:20 5,3 C 0 % 0,0 l/m 0,0 km/h (0 Bft) N 360 -1,2 C 4,5 C 0,0 km/h (0 Bft)
14.05.2012 21:25 5,3 C 0 % 0,0 l/m 0,0 km/h (0 Bft) NO 45 -0,9 C 4,3 C 0,0 km/h (0 Bft)
14.05.2012 21:30 5,1 C 0 % 0,0 l/m 0,0 km/h (0 Bft) N 360 -0,9 C 4,1 C 0,0 km/h (0 Bft)
14.05.2012 21:35 4,6 C 0 % 0,0 l/m 0,0 km/h (0 Bft) N 360 -1,4 C 4,0 C 0,0 km/h (0 Bft)
14.05.2012 21:40 4,1 C 0 % 0,0 l/m 0,0 km/h (0 Bft) N 360 -1,7 C 3,5 C 0,0 km/h (0 Bft)
14.05.2012 21:45 3,8 C 0 % 0,0 l/m 0,0 km/h (0 Bft) NO 45 -1,8 C 3,2 C 0,0 km/h (0 Bft)
14.05.2012 21:50 3,9 C 0 % 0,0 l/m 0,0 km/h (0 Bft) NO 45 -1,5 C 2,7 C 0,0 km/h (0 Bft)
14.05.2012 21:55 3,8 C 0 % 0,0 l/m 0,0 km/h (0 Bft) NO 45 -1,6 C 2,5 C 0,0 km/h (0 Bft)
14.05.2012 22:00 3,4 C 0 % 0,0 l/m 0,0 km/h (0 Bft) NO 45 -1,7 C 2,3 C 0,0 km/h (0 Bft)
14.05.2012 22:05 3,2 C 0 % 0,0 l/m 0,0 km/h (0 Bft) NO 45 -1,9 C 2,1 C 0,0 km/h (0 Bft)
14.05.2012 22:10 3,1 C 0 % 0,0 l/m 0,0 km/h (0 Bft) NO 45 -2,0 C 1,9 C 0,0 km/h (0 Bft)
14.05.2012 22:15 3,4 C 0 % 0,0 l/m 0,0 km/h (0 Bft) NO 45 -1,5 C 1,9 C 0,0 km/h (0 Bft)
14.05.2012 22:20 3,1 C 0 % 0,0 l/m 0,0 km/h (0 Bft) NO 45 -1,8 C 1,7 C 0,0 km/h (0 Bft)
14.05.2012 22:25 3,0 C 0 % 0,0 l/m 0,0 km/h (0 Bft) NO 45 -1,7 C 1,6 C 0,0 km/h (0 Bft)
14.05.2012 22:26 2,5 C 0 % 0,0 l/m 0,0 km/h (0 Bft) NO 45 -2,0 C 1,5 C 0,0 km/h (0 Bft)
14.05.2012 22:30 2,5 C 0 % 0,0 l/m 0,0 km/h (0 Bft) NO 45 -2,0 C 1,5 C 0,0 km/h (0 Bft)
14.05.2012 22:35 2,3 C 0 % 0,0 l/m 0,0 km/h (0 Bft) N 360 -2,0 C 1,3 C 0,0 km/h (0 Bft)
14.05.2012 22:40 2,8 C 73 % 0,0 l/m 0,2 km/h (0 Bft) N 360 -1,4 C 1,4 C 0,0 km/h (0 Bft)
14.05.2012 22:45 2,6 C 73 % 0,0 l/m 0,2 km/h (0 Bft) O 90 -1,6 C 1,4 C 0,0 km/h (0 Bft)
14.05.2012 22:50 2,2 C 73 % 0,0 l/m 0,2 km/h (0 Bft) S 180 -1,9 C 1,4 C 0,0 km/h (0 Bft)
14.05.2012 22:55 2,0 C 73 % 0,0 l/m 0,2 km/h (0 Bft) N-NO 22 -2,0 C 1,2 C 0,0 km/h (0 Bft)
14.05.2012 23:00 2,2 C 73 % 0,0 l/m 0,0 km/h (0 Bft) N 360 -1,8 C 1,1 C 0,0 km/h (0 Bft)
14.05.2012 23:04 2,7 C 73 % 0,0 l/m 0,0 km/h (0 Bft) NO 45 -1,1 C 1,1 C 0,0 km/h (0 Bft)
14.05.2012 23:05 2,7 C 73 % 0,0 l/m 0,0 km/h (0 Bft) NO 45 -1,1 C 1,1 C 0,0 km/h (0 Bft)
14.05.2012 23:10 2,6 C 73 % 0,0 l/m 0,3 km/h (0 Bft) O-NO 67 -1,2 C 1,3 C 1,8 km/h (1 Bft)
14.05.2012 23:15 2,3 C 73 % 0,0 l/m 0,3 km/h (0 Bft) NO 45 -1,3 C 1,2 C 0,0 km/h (0 Bft)
14.05.2012 23:20 2,3 C 73 % 0,0 l/m 0,0 km/h (0 Bft) NO 45 -1,1 C 1,0 C 0,0 km/h (0 Bft)
14.05.2012 23:25 2,1 C 73 % 0,0 l/m 0,0 km/h (0 Bft) N-NO 22 -1,3 C 0,8 C 0,0 km/h (0 Bft)
14.05.2012 23:27 2,2 C 73 % 0,0 l/m 0,0 km/h (0 Bft) N 360 -1,2 C 0,7 C 0,0 km/h (0 Bft)
14.05.2012 23:30 2,2 C 73 % 0,0 l/m 0,0 km/h (0 Bft) N 360 -1,2 C 0,7 C 0,0 km/h (0 Bft)
14.05.2012 23:35 2,0 C 73 % 0,0 l/m 0,0 km/h (0 Bft) N-NO 22 -1,2 C 0,8 C 1,6 km/h (1 Bft)
14.05.2012 23:40 2,2 C 73 % 0,0 l/m 0,3 km/h (0 Bft) NO 45 -1,1 C 0,8 C 0,0 km/h (0 Bft)
14.05.2012 23:45 2,2 C 73 % 0,0 l/m 0,3 km/h (0 Bft) NO 45 -1,1 C 0,8 C 1,6 km/h (1 Bft)
14.05.2012 23:50 1,9 C 73 % 0,0 l/m 0,2 km/h (0 Bft) N-NO 22 -1,3 C 0,7 C 0,0 km/h (0 Bft)
14.05.2012 23:55 1,6 C 73 % 0,0 l/m 0,2 km/h (0 Bft) NO 45 -1,8 C 0,6 C 0,0 km/h (0 Bft)
_ Min-Zeit 05:50 22:35 - 23:35 - - 05:50 05:45 23:55
Minimum _ -2,4 C 0 % - 0,0 km/h (0 Bft) - - -3,8 C -3,2 C 0,0 km/h (0 Bft)
_ Max-Zeit 14:00 23:55 23:55 15:40 - - 08:25 16:45 15:35
Maximum _ 15,6 C 73 % 0,0 l/m 7,2 km/h
S-SW (2 Bft)
- - 4,2 C 18,4 C 15,6 km/h
S-SW (3 Bft)
Durchschnitt _ 7,4 C 4 % #0,0 l/m 2,2 km/h (1 Bft) W-SW - -1,2 C 8,0 C 3,0 km/h (1 Bft)